TimeCST,TemperatureF,Dew PointF,Humidity,Sea Level PressureIn,VisibilityMPH,Wind Direction,Wind SpeedMPH,Gust SpeedMPH,PrecipitationIn,Events,Conditions,WindDirDegrees,DateUTC
12:15 AM,44.6,19.4,37,30.07,10.0,SSW,6.9,-,N/A,,Clear,200,2012-11-25 06:15:00
12:35 AM,44.6,19.4,37,30.06,10.0,SSW,5.8,-,N/A,,Clear,200,2012-11-25 06:35:00
12:55 AM,46.4,19.4,34,30.06,10.0,SSW,9.2,-,N/A,,Clear,210,2012-11-25 06:55:00
1:35 AM,46.4,17.6,32,30.05,10.0,SSW,4.6,-,N/A,,Clear,210,2012-11-25 07:35:00
1:55 AM,44.6,19.4,37,30.05,10.0,SSW,4.6,-,N/A,,Clear,210,2012-11-25 07:55:00
2:15 AM,44.6,19.4,37,30.04,10.0,Calm,Calm,-,N/A,,Clear,0,2012-11-25 08:15:00
2:35 AM,39.2,23.0,52,30.04,10.0,East,4.6,-,N/A,,Clear,80,2012-11-25 08:35:00
2:55 AM,35.6,24.8,65,30.04,10.0,ESE,5.8,-,N/A,,Clear,110,2012-11-25 08:55:00
3:15 AM,33.8,24.8,70,30.03,10.0,SE,5.8,-,N/A,,Clear,130,2012-11-25 09:15:00
3:35 AM,33.8,26.6,75,30.03,10.0,ESE,5.8,-,N/A,,Clear,120,2012-11-25 09:35:00
3:55 AM,33.8,26.6,75,30.02,10.0,ESE,5.8,-,N/A,,Clear,120,2012-11-25 09:55:00
4:15 AM,33.8,24.8,70,30.01,10.0,SE,6.9,-,N/A,,Clear,130,2012-11-25 10:15:00
4:35 AM,35.6,26.6,70,30.01,10.0,ESE,8.1,-,N/A,,Clear,120,2012-11-25 10:35:00
4:55 AM,35.6,24.8,65,30.01,10.0,SE,6.9,-,N/A,,Clear,130,2012-11-25 10:55:00
5:15 AM,37.4,24.8,60,30.00,10.0,SE,5.8,-,N/A,,Clear,140,2012-11-25 11:15:00
5:55 AM,35.6,24.8,65,29.99,10.0,ESE,6.9,-,N/A,,Clear,120,2012-11-25 11:55:00
6:15 AM,35.6,26.6,70,29.99,9.0,ESE,8.1,-,N/A,,Clear,110,2012-11-25 12:15:00
6:35 AM,35.6,24.8,65,29.99,10.0,SE,8.1,-,N/A,,Clear,130,2012-11-25 12:35:00
6:55 AM,39.2,24.8,56,29.99,10.0,SE,8.1,-,N/A,,Clear,130,2012-11-25 12:55:00
7:15 AM,35.6,26.6,70,29.99,10.0,East,5.8,-,N/A,,Clear,100,2012-11-25 13:15:00
7:35 AM,37.4,26.6,65,29.99,10.0,ESE,6.9,-,N/A,,Clear,110,2012-11-25 13:35:00
7:55 AM,41.0,26.6,57,29.99,10.0,ESE,4.6,-,N/A,,Clear,110,2012-11-25 13:55:00
8:15 AM,46.4,24.8,43,30.00,10.0,East,4.6,-,N/A,,Clear,80,2012-11-25 14:15:00
8:35 AM,48.2,24.8,40,30.00,10.0,ESE,5.8,-,N/A,,Clear,110,2012-11-25 14:35:00
8:55 AM,48.2,26.6,43,30.01,9.0,ENE,5.8,-,N/A,,Clear,70,2012-11-25 14:55:00
9:15 AM,50.0,26.6,40,30.01,7.0,ENE,8.1,-,N/A,,Clear,60,2012-11-25 15:15:00
9:35 AM,53.6,26.6,35,30.01,10.0,East,8.1,-,N/A,,Clear,90,2012-11-25 15:35:00
9:55 AM,55.4,28.4,36,30.00,9.0,ESE,5.8,-,N/A,,Clear,120,2012-11-25 15:55:00
10:15 AM,57.2,28.4,33,29.99,10.0,South,5.8,-,N/A,,Clear,170,2012-11-25 16:15:00
10:35 AM,60.8,28.4,29,29.98,10.0,South,8.1,-,N/A,,Clear,170,2012-11-25 16:35:00
10:55 AM,62.6,26.6,26,29.97,10.0,SW,9.2,-,N/A,,Clear,220,2012-11-25 16:55:00
11:35 AM,64.4,28.4,26,29.94,9.0,SSW,10.4,-,N/A,,Clear,200,2012-11-25 17:35:00
11:55 AM,64.4,28.4,26,29.93,10.0,SSW,11.5,-,N/A,,Clear,200,2012-11-25 17:55:00
12:15 PM,64.4,28.4,26,29.93,10.0,SSW,10.4,-,N/A,,Clear,210,2012-11-25 18:15:00
12:55 PM,66.2,28.4,24,29.90,10.0,SW,9.2,-,N/A,,Clear,220,2012-11-25 18:55:00
1:15 PM,66.2,30.2,26,29.89,10.0,SSW,6.9,-,N/A,,Clear,200,2012-11-25 19:15:00
1:35 PM,66.2,30.2,26,29.88,9.0,SSW,9.2,16.1,N/A,,Clear,200,2012-11-25 19:35:00
1:55 PM,68.0,30.2,24,29.87,10.0,South,8.1,-,N/A,,Clear,190,2012-11-25 19:55:00
2:15 PM,68.0,30.2,24,29.86,10.0,South,9.2,-,N/A,,Clear,170,2012-11-25 20:15:00
2:35 PM,68.0,32.0,26,29.86,9.0,South,9.2,-,N/A,,Clear,170,2012-11-25 20:35:00
2:55 PM,68.0,32.0,26,29.86,10.0,South,9.2,-,N/A,,Clear,190,2012-11-25 20:55:00
3:15 PM,68.0,32.0,26,29.85,10.0,South,10.4,-,N/A,,Clear,190,2012-11-25 21:15:00
3:35 PM,68.0,32.0,26,29.85,10.0,South,12.7,16.1,N/A,,Clear,170,2012-11-25 21:35:00
3:55 PM,66.2,32.0,28,29.86,10.0,South,11.5,-,N/A,,Clear,170,2012-11-25 21:55:00
4:15 PM,66.2,32.0,28,29.86,9.0,South,8.1,-,N/A,,Clear,180,2012-11-25 22:15:00
4:35 PM,64.4,32.0,30,29.86,10.0,South,9.2,-,N/A,,Clear,180,2012-11-25 22:35:00
4:55 PM,62.6,32.0,32,29.86,10.0,SSE,6.9,-,N/A,,Clear,160,2012-11-25 22:55:00
5:15 PM,60.8,32.0,34,29.87,9.0,SSE,3.5,-,N/A,,Clear,160,2012-11-25 23:15:00
5:55 PM,57.2,32.0,38,29.89,9.0,SSE,4.6,-,N/A,,Clear,150,2012-11-25 23:55:00
6:15 PM,55.4,33.8,44,29.90,10.0,SE,3.5,-,N/A,,Clear,140,2012-11-26 00:15:00
6:35 PM,53.6,33.8,47,29.90,10.0,SE,5.8,-,N/A,,Clear,130,2012-11-26 00:35:00
6:55 PM,53.6,35.6,51,29.90,7.0,SE,6.9,-,N/A,,Clear,130,2012-11-26 00:55:00
7:15 PM,53.6,35.6,51,29.90,10.0,SE,8.1,-,N/A,,Clear,130,2012-11-26 01:15:00
7:35 PM,55.4,35.6,47,29.90,10.0,ESE,8.1,-,N/A,,Clear,120,2012-11-26 01:35:00
7:55 PM,53.6,35.6,51,29.90,10.0,ESE,8.1,-,N/A,,Clear,120,2012-11-26 01:55:00
8:15 PM,53.6,35.6,51,29.90,10.0,ESE,8.1,-,N/A,,Partly Cloudy,120,2012-11-26 02:15:00
8:35 PM,53.6,35.6,51,29.91,10.0,ESE,8.1,-,N/A,,Partly Cloudy,120,2012-11-26 02:35:00
8:55 PM,53.6,35.6,51,29.91,10.0,ESE,8.1,-,N/A,,Clear,110,2012-11-26 02:55:00
9:35 PM,53.6,37.4,54,29.91,10.0,ESE,9.2,-,N/A,,Clear,110,2012-11-26 03:35:00
9:55 PM,55.4,37.4,51,29.91,10.0,ESE,10.4,-,N/A,,Clear,110,2012-11-26 03:55:00
10:15 PM,53.6,37.4,54,29.91,10.0,East,8.1,-,N/A,,Clear,100,2012-11-26 04:15:00
10:35 PM,53.6,37.4,54,29.91,10.0,East,9.2,-,N/A,,Clear,100,2012-11-26 04:35:00
10:55 PM,50.0,39.2,66,29.91,10.0,East,6.9,-,N/A,,Clear,100,2012-11-26 04:55:00
11:15 PM,51.8,37.4,58,29.91,10.0,ESE,9.2,-,N/A,,Clear,110,2012-11-26 05:15:00
11:35 PM,50.0,37.4,62,29.91,10.0,ESE,10.4,-,N/A,,Partly Cloudy,110,2012-11-26 05:35:00
11:55 PM,50.0,39.2,66,29.90,10.0,ESE,10.4,-,N/A,,Clear,110,2012-11-26 05:55:00